| time (UTC) | temp F | wind direction | speed knots | gust knots | rain 1hr in | rain 24hr in | rain mn in | humidity % | barometer mb |
| 20260505040045 | 67 | 0 | 0.0 | 1.7 | 0.00 | 0.00 | 0.00 | 82 | 1013.1 |
| 20260505034532 | 67 | 161 | 0.0 | 4.3 | 0.00 | 0.00 | 0.00 | 81 | 1013.0 |
| 20260505033032 | 67 | 189 | 1.7 | 5.2 | 0.00 | 0.00 | 0.00 | 80 | 1012.9 |
| 20260505031541 | 68 | 175 | 0.9 | 3.5 | 0.00 | 0.00 | 0.00 | 80 | 1013.0 |
| 20260505030035 | 68 | 208 | 0.0 | 5.2 | 0.00 | 0.00 | 0.00 | 79 | 1012.9 |
| 20260505024547 | 68 | 0 | 1.7 | 5.2 | 0.00 | 0.00 | 0.00 | 78 | 1012.7 |
| 20260505023032 | 68 | 198 | 2.6 | 6.1 | 0.00 | 0.00 | 0.00 | 78 | 1012.7 |
| 20260505021538 | 68 | 196 | 2.6 | 5.2 | 0.00 | 0.00 | 0.00 | 77 | 1012.6 |
| 20260505020034 | 68 | 184 | 1.7 | 5.2 | 0.00 | 0.00 | 0.00 | 77 | 1012.5 |
| 20260505014551 | 69 | 179 | 1.7 | 4.3 | 0.00 | 0.00 | 0.00 | 77 | 1012.5 |
| 20260505013033 | 69 | 173 | 0.9 | 6.1 | 0.00 | 0.00 | 0.00 | 76 | 1012.6 |
| 20260505011532 | 70 | 205 | 1.7 | 6.1 | 0.00 | 0.00 | 0.00 | 74 | 1012.5 |
| 20260505010035 | 70 | 179 | 1.7 | 5.2 | 0.00 | 0.00 | 0.00 | 73 | 1012.4 |
| 20260505004539 | 71 | 198 | 1.7 | 7.0 | 0.00 | 0.00 | 0.00 | 72 | 1012.5 |
| 20260505003035 | 72 | 139 | 3.5 | 7.8 | 0.00 | 0.00 | 0.00 | 70 | 1012.8 |
| 20260505001530 | 72 | 194 | 2.6 | 9.6 | 0.00 | 0.00 | 0.00 | 69 | 1012.6 |
| 20260505000040 | 73 | 198 | 3.5 | 8.7 | 0.00 | 0.00 | 0.00 | 68 | 1012.5 |
| 20260504234543 | 74 | 167 | 3.5 | 7.8 | 0.00 | 0.00 | 0.00 | 67 | 1012.5 |
| 20260504233052 | 74 | 135 | 3.5 | 9.6 | 0.00 | 0.00 | 0.00 | 66 | 1012.8 |
| 20260504231537 | 75 | 186 | 3.5 | 9.6 | 0.00 | 0.00 | 0.00 | 64 | 1013.1 |
| 20260504230042 | 75 | 225 | 4.3 | 10.4 | 0.00 | 0.00 | 0.00 | 64 | 1013.3 |
| 20260504224540 | 75 | 175 | 4.3 | 9.6 | 0.00 | 0.00 | 0.00 | 63 | 1013.3 |
| 20260504223052 | 76 | 177 | 5.2 | 10.4 | 0.00 | 0.00 | 0.00 | 62 | 1013.4 |
| 20260504221538 | 77 | 201 | 4.3 | 9.6 | 0.00 | 0.00 | 0.00 | 62 | 1013.5 |
| 20260504220035 | 77 | 200 | 5.2 | 11.3 | 0.00 | 0.00 | 0.00 | 61 | 1013.5 |
| 20260504214538 | 78 | 190 | 1.7 | 9.6 | 0.00 | 0.00 | 0.00 | 59 | 1013.6 |
| 20260504213045 | 77 | 198 | 3.5 | 9.6 | 0.00 | 0.00 | 0.00 | 58 | 1013.9 |
| 20260504211538 | 78 | 259 | 3.5 | 9.6 | 0.00 | 0.00 | 0.00 | 58 | 1013.9 |
| 20260504210040 | 77 | 202 | 3.5 | 9.6 | 0.00 | 0.00 | 0.00 | 58 | 1014.0 |
| 20260504204543 | 76 | 175 | 3.5 | 10.4 | 0.00 | 0.00 | 0.00 | 60 | 1014.3 |
| 20260504203041 | 79 | 199 | 3.5 | 7.8 | 0.00 | 0.00 | 0.00 | 56 | 1014.3 |
| 20260504201539 | 78 | 202 | 3.5 | 9.6 | 0.00 | 0.00 | 0.00 | 56 | 1014.7 |
| 20260504200033 | 76 | 139 | 3.5 | 9.6 | 0.00 | 0.00 | 0.00 | 58 | 1015.1 |
| 20260504194535 | 77 | 63 | 2.6 | 13.0 | 0.00 | 0.00 | 0.00 | 57 | 1015.1 |
| 20260504193035 | 77 | 179 | 5.2 | 13.0 | 0.00 | 0.00 | 0.00 | 57 | 1015.4 |
| 20260504191534 | 77 | 191 | 6.1 | 12.2 | 0.00 | 0.00 | 0.00 | 57 | 1015.8 |
| 20260504190036 | 77 | 173 | 4.3 | 14.8 | 0.00 | 0.00 | 0.00 | 58 | 1015.8 |
| 20260504184538 | 77 | 94 | 4.3 | 12.2 | 0.00 | 0.00 | 0.00 | 57 | 1015.8 |
| 20260504183034 | 76 | 148 | 3.5 | 13.9 | 0.00 | 0.00 | 0.00 | 56 | 1016.0 |
| 20260504181542 | 76 | 190 | 7.0 | 13.0 | 0.00 | 0.00 | 0.00 | 58 | 1016.1 |
| 20260504180035 | 76 | 187 | 6.1 | 14.8 | 0.00 | 0.00 | 0.00 | 55 | 1016.3 |
| 20260504174538 | 75 | 193 | 5.2 | 13.0 | 0.00 | 0.00 | 0.00 | 56 | 1016.3 |
| 20260504173036 | 76 | 164 | 5.2 | 14.8 | 0.00 | 0.00 | 0.00 | 55 | 1016.7 |
| 20260504171535 | 76 | 196 | 4.3 | 12.2 | 0.00 | 0.00 | 0.00 | 55 | 1017.1 |
| 20260504081538 | 58 | 0 | 0.0 | 0.0 | 0.00 | 0.00 | 0.00 | 92 | 1017.1 |
| 20260504044543 | 60 | 0 | 0.0 | 0.0 | 0.00 | 0.00 | 0.00 | 85 | 1018.3 |
| 20260504043038 | 61 | 0 | 0.0 | 0.0 | 0.00 | 0.00 | 0.00 | 83 | 1018.4 |
| 20260504041535 | 61 | 0 | 0.0 | 0.0 | 0.00 | 0.00 | 0.00 | 82 | 1018.6 |